VA3XLC Weather Reports


Display with metric or nautical units.
time (UTC)temp
F
wind
direction
speed
MPH
gust
MPH
rain 1hr
in
rain 24hr
in
rain mn
in
humidity
%
barometer
mb
20260905034435 68 38 1.0 4.0 0.00 0.00 0.00 91 982.7
20260905033935 68 0 0.0 0.0 0.00 0.00 0.00 92 982.7
20260905033434 68 64 2.0 3.0 0.00 0.00 0.00 92 982.8
20260905032934 68 359 1.0 2.0 0.00 0.00 0.00 93 982.8
20260905032433 68 0 0.0 0.0 0.00 0.00 0.00 93 982.8
20260905031933 68 0 0.0 0.0 0.00 0.00 0.00 93 982.8
20260905031433 68 0 0.0 0.0 0.00 0.00 0.00 94 982.7
20260905030412 68 0 0.0 0.0 0.00 0.00 0.00 94 982.7
20260905025912 68 0 0.0 0.0 0.00 0.00 0.00 94 982.8
20260905025411 68 0 0.0 0.0 0.00 0.00 0.00 95 982.8
20260905024910 68 0 0.0 0.0 0.00 0.00 0.00 95 982.8
20260905023849 68 0 0.0 0.0 0.00 0.00 0.00 94 982.8
20260905023349 68 0 0.0 0.0 0.00 0.00 0.00 94 982.8
20260905022327 68 0 0.0 0.0 0.00 0.00 0.00 94 982.7
20260905021826 68 0 0.0 0.0 0.00 0.00 0.00 94 982.6
20260905021325 68 0 0.0 0.0 0.00 0.00 0.00 94 982.7
20260905020825 68 0 0.0 0.0 0.00 0.00 0.00 93 982.7
20260905020325 68 0 0.0 0.0 0.00 0.00 0.00 93 982.7
20260905015824 68 0 0.0 0.0 0.00 0.00 0.00 92 982.7
20260905015323 68 0 0.0 0.0 0.00 0.00 0.00 90 982.7
20260905014302 68 0 0.0 0.0 0.00 0.00 0.00 90 982.7
20260905013802 68 0 0.0 0.0 0.00 0.00 0.00 91 982.6
20260905013302 68 0 0.0 0.0 0.00 0.00 0.00 91 982.6
20260905012802 68 0 0.0 0.0 0.00 0.00 0.00 90 982.6
20260905012305 68 0 0.0 0.0 0.00 0.00 0.00 88 982.5
20260905011801 69 0 0.0 0.0 0.00 0.00 0.00 90 982.5
20260905011300 69 0 0.0 0.0 0.00 0.00 0.00 88 982.5
20260905010800 69 0 0.0 0.0 0.00 0.00 0.00 89 982.5
20260905010300 69 0 0.0 0.0 0.00 0.00 0.00 88 982.5
20260905005759 69 0 0.0 0.0 0.00 0.00 0.00 87 982.4
20260905004737 70 0 0.0 0.0 0.00 0.00 0.00 85 982.4
20260905003716 70 100 1.0 2.0 0.00 0.00 0.00 86 982.3
20260905002654 70 0 0.0 0.0 0.00 0.00 0.00 86 982.3
20260905001633 70 0 0.0 0.0 0.00 0.00 0.00 87 982.3
20260905001133 70 0 0.0 0.0 0.00 0.00 0.00 87 982.3
20260905000633 70 0 0.0 0.0 0.00 0.00 0.00 85 982.3
20260905000132 70 0 0.0 0.0 0.00 0.00 0.00 84 982.4
20260904235111 70 124 1.0 2.0 0.00 0.00 0.00 84 982.4
20260904234611 70 54 1.0 2.0 0.00 0.00 0.00 84 982.4
20260904234111 70 94 1.0 2.0 0.00 0.00 0.00 84 982.4
20260904233610 71 104 1.0 2.0 0.00 0.00 0.00 85 982.4
20260904233110 71 110 1.0 2.0 0.00 0.00 0.00 84 982.3
20260904232610 71 103 1.0 2.0 0.00 0.00 0.00 84 982.2
20260904232110 71 71 2.0 3.0 0.00 0.00 0.00 84 982.2
20260904231610 71 56 1.0 3.0 0.00 0.00 0.00 84 982.2
20260904230548 71 117 1.0 2.0 0.00 0.00 0.00 83 982.2
20260904230048 71 141 1.0 2.0 0.00 0.00 0.00 84 982.2
20260904225548 71 64 1.0 2.0 0.00 0.00 0.00 85 982.1
20260904225047 71 114 1.0 2.0 0.00 0.00 0.00 85 982.1
20260904223505 71 122 1.0 2.0 0.00 0.00 0.00 86 981.9
20260904223005 71 96 3.0 4.0 0.00 0.00 0.00 86 981.8
20260904222504 71 65 2.0 3.0 0.00 0.00 0.00 86 981.9
20260904222004 71 63 2.0 4.0 0.00 0.00 0.00 87 981.8
20260904221503 71 73 3.0 5.0 0.00 0.00 0.00 86 981.7
20260904221002 71 51 2.0 4.0 0.00 0.00 0.00 86 981.7
20260904220502 71 77 4.0 6.0 0.00 0.00 0.00 86 981.6
20260904215441 71 75 3.0 6.0 0.00 0.00 0.00 86 981.5
20260904214940 71 79 2.0 3.0 0.00 0.00 0.00 87 981.5
20260904214439 71 100 2.0 5.0 0.00 0.00 0.00 86 981.3
20260904213418 71 94 4.0 5.0 0.00 0.00 0.00 87 981.3
20260904212918 71 91 3.0 4.0 0.00 0.00 0.00 87 981.4
20260904212417 72 80 3.0 6.0 0.00 0.00 0.00 89 981.4
20260904211917 72 99 3.0 5.0 0.00 0.00 0.00 90 981.3
20260904211417 72 66 3.0 6.0 0.00 0.00 0.00 91 981.4
20260904210917 72 80 3.0 5.0 0.00 0.00 0.00 90 981.4
20260904205855 72 91 3.0 5.0 0.00 0.00 0.00 90 981.3
20260904205355 72 108 4.0 6.0 0.00 0.00 0.00 89 981.3
20260904204855 72 77 3.0 4.0 0.00 0.00 0.00 89 981.3
20260904204355 72 76 2.0 5.0 0.00 0.00 0.00 89 981.3
20260904203855 72 45 2.0 3.0 0.00 0.00 0.00 90 981.2
20260904203354 72 57 3.0 5.0 0.00 0.00 0.00 90 981.3
20260904202854 72 75 2.0 5.0 0.00 0.00 0.00 90 981.3
20260904202354 72 81 3.0 5.0 0.00 0.00 0.00 89 981.4
20260904201854 72 70 3.0 4.0 0.00 0.00 0.00 90 981.4
20260904201353 72 65 3.0 5.0 0.00 0.00 0.00 90 981.5
20260904200853 72 78 3.0 5.0 0.00 0.00 0.00 89 981.5
20260904195832 72 94 2.0 5.0 0.00 0.00 0.00 90 981.5
20260904195332 72 120 3.0 5.0 0.00 0.00 0.00 91 981.6
20260904194831 73 145 4.0 6.0 0.00 0.00 0.00 90 981.7
20260904194331 72 118 3.0 6.0 0.00 0.00 0.00 91 981.7
20260904193831 72 120 1.0 3.0 0.00 0.00 0.00 91 981.8
20260904193330 72 123 2.0 5.0 0.00 0.00 0.00 91 981.9
20260904192309 73 88 3.0 4.0 0.00 0.00 0.00 90 982.0
20260904191809 73 124 2.0 4.0 0.00 0.00 0.00 90 982.0
20260904191309 73 112 3.0 3.0 0.00 0.00 0.00 90 982.0
20260904190808 73 127 3.0 5.0 0.00 0.00 0.00 90 982.0
20260904190308 73 167 2.0 3.0 0.00 0.00 0.00 90 982.1
20260904185808 74 142 2.0 3.0 0.00 0.00 0.00 88 982.1
20260904185308 74 143 1.0 3.0 0.00 0.00 0.00 87 982.2
20260904184808 74 142 3.0 4.0 0.00 0.00 0.00 86 982.3
20260904184308 74 54 1.0 2.0 0.00 0.00 0.00 86 982.3
20260904182725 73 41 2.0 2.0 0.00 0.00 0.00 88 982.5
20260904182224 74 105 2.0 4.0 0.00 0.00 0.00 88 982.4
20260904181723 74 130 1.0 2.0 0.00 0.00 0.00 87 982.5
20260904180702 74 144 2.0 3.0 0.00 0.00 0.00 86 982.5
20260904180201 74 113 3.0 4.0 0.00 0.00 0.00 86 982.4
20260904175701 74 45 3.0 4.0 0.00 0.00 0.00 85 982.5
20260904175201 73 293 1.0 2.0 0.00 0.00 0.00 87 982.5
20260904174701 73 127 2.0 4.0 0.00 0.00 0.00 88 982.7
20260904174200 73 164 1.0 2.0 0.00 0.00 0.00 86 982.8
20260904173700 73 153 2.0 4.0 0.00 0.00 0.00 87 982.9
20260904173200 72 64 1.0 2.0 0.00 0.00 0.00 88 983.1
20260904172659 71 332 2.0 3.0 0.00 0.00 0.00 89 983.3
20260904172158 71 243 2.0 3.0 0.00 0.00 0.00 88 983.3
20260904171657 71 67 1.0 2.0 0.00 0.00 0.00 90 983.5
20260904171157 70 349 2.0 4.0 0.00 0.00 0.00 92 983.5
20260904170136 70 350 2.0 3.0 0.00 0.00 0.00 93 983.6
20260904165635 70 199 1.0 2.0 0.00 0.00 0.00 94 983.8
20260904165135 69 315 3.0 3.0 0.00 0.00 0.00 94 983.9
20260904164634 69 252 3.0 4.0 0.00 0.00 0.00 94 984.1
20260904164134 69 308 3.0 4.0 0.00 0.00 0.00 94 984.2
20260904163113 69 271 3.0 4.0 0.00 0.00 0.00 94 984.4
20260904162611 69 0 0.0 0.0 0.00 0.00 0.00 95 984.5
20260904162111 69 246 3.0 5.0 0.00 0.00 0.00 95 984.6
20260904161611 69 257 2.0 3.0 0.00 0.00 0.00 95 984.7
20260904161111 69 255 2.0 4.0 0.00 0.00 0.00 95 984.8
20260904160610 69 278 3.0 4.0 0.00 0.00 0.00 95 984.8
20260904160110 69 262 2.0 4.0 0.00 0.00 0.00 95 984.8
20260904154528 68 250 3.0 4.0 0.00 0.00 0.00 96 984.5
20260904154027 68 266 3.0 3.0 0.00 0.00 0.00 96 984.7
20260904153527 68 286 2.0 3.0 0.00 0.00 0.00 96 984.7
20260904153027 68 268 2.0 4.0 0.00 0.00 0.00 96 984.7
20260904152527 68 300 2.0 3.0 0.00 0.00 0.00 95 984.7
20260904152026 68 250 2.0 3.0 0.00 0.00 0.00 95 984.7
20260904151004 68 244 2.0 3.0 0.00 0.00 0.00 94 984.6
20260904150504 68 275 1.0 1.0 0.00 0.00 0.00 94 984.5
20260904150004 68 0 0.0 0.0 0.00 0.00 0.00 93 984.4
20260904145504 68 0 0.0 0.0 0.00 0.00 0.00 94 984.3
20260904145004 68 154 1.0 3.0 0.00 0.00 0.00 93 984.4
20260904143420 68 279 1.0 2.0 0.00 0.00 0.00 93 984.5
20260904142920 68 316 1.0 2.0 0.00 0.00 0.00 94 984.4
20260904142420 68 251 2.0 3.0 0.00 0.00 0.00 94 984.3
20260904141920 68 0 0.0 0.0 0.00 0.00 0.00 94 984.2
20260904141419 68 0 0.0 0.0 0.00 0.00 0.00 94 984.1
20260904140919 68 253 1.0 2.0 0.00 0.00 0.00 94 984.1
20260904140419 68 153 1.0 2.0 0.00 0.00 0.00 95 984.0
20260904135918 68 153 1.0 1.0 0.00 0.00 0.00 95 983.9
20260904135418 67 0 0.0 0.0 0.00 0.00 0.00 95 983.7
20260904134917 67 171 1.0 2.0 0.00 0.00 0.00 96 983.8
20260904134417 67 246 1.0 2.0 0.00 0.00 0.00 95 983.7
20260904133916 67 165 1.0 2.0 0.00 0.00 0.00 95 983.6
20260904133416 67 0 0.0 0.0 0.00 0.00 0.00 96 983.6
20260904132916 66 167 2.0 3.0 0.00 0.00 0.00 96 983.6
20260904131854 66 157 2.0 2.0 0.00 0.00 0.00 95 983.7
20260904131354 66 140 1.0 2.0 0.00 0.00 0.00 96 983.7
20260904130854 66 177 1.0 2.0 0.00 0.00 0.00 97 983.8
20260904130354 66 179 2.0 3.0 0.00 0.00 0.00 97 983.8
20260904125853 65 154 2.0 3.0 0.00 0.00 0.00 97 983.8
20260904125353 65 123 1.0 1.0 0.00 0.00 0.00 97 983.9
20260904124332 66 0 0.0 0.0 0.00 0.00 0.00 98 984.0
20260904123832 66 252 1.0 2.0 0.00 0.00 0.00 98 984.0
20260904123331 66 0 0.0 0.0 0.00 0.00 0.00 98 984.0
20260904122830 66 0 0.0 0.0 0.00 0.00 0.00 98 984.0
20260904122330 66 134 1.0 1.0 0.00 0.00 0.00 98 983.9
20260904121830 65 0 0.0 0.0 0.00 0.00 0.00 98 983.9
20260904121330 65 162 1.0 2.0 0.00 0.00 0.00 98 983.8
20260904120829 65 151 1.0 2.0 0.00 0.00 0.00 98 983.9
20260904120329 65 0 0.0 0.0 0.00 0.00 0.00 98 983.8
20260904115828 65 0 0.0 0.0 0.00 0.00 0.00 98 983.6
20260904115328 65 0 0.0 0.0 0.00 0.00 0.00 98 983.6
20260904114828 65 0 0.0 0.0 0.00 0.00 0.00 98 983.6
20260904114328 65 21 0.0 1.0 0.00 0.00 0.00 98 983.5
20260904113827 65 0 0.0 0.0 0.00 0.00 0.00 98 983.4
20260904112806 64 0 0.0 0.0 0.00 0.00 0.00 98 983.5
20260904112306 64 0 0.0 0.0 0.00 0.00 0.00 98 983.4
20260904111244 64 0 0.0 0.0 0.00 0.00 0.00 98 983.3
20260904110744 64 0 0.0 0.0 0.00 0.00 0.00 98 983.3
20260904110244 64 0 0.0 0.0 0.00 0.00 0.00 98 983.2
20260904105744 64 0 0.0 0.0 0.00 0.00 0.00 98 982.9
20260904105243 64 0 0.0 0.0 0.00 0.00 0.00 98 982.8
20260904104743 65 0 0.0 0.0 0.00 0.00 0.00 98 982.7
20260904104243 65 0 0.0 0.0 0.00 0.00 0.00 98 982.8
20260904103222 65 44 1.0 2.0 0.00 0.00 0.00 98 982.8
20260904102721 65 0 0.0 0.0 0.00 0.00 0.00 98 982.8
20260904102220 65 150 2.0 2.0 0.00 0.00 0.00 98 982.7
20260904101720 65 0 0.0 0.0 0.00 0.00 0.00 98 982.8
20260904101220 65 0 0.0 0.0 0.00 0.00 0.00 98 982.8
20260904100720 65 0 0.0 0.0 0.00 0.00 0.00 98 982.9
20260904100220 65 0 0.0 0.0 0.00 0.00 0.00 98 982.9
20260904095720 65 0 0.0 0.0 0.00 0.00 0.00 98 982.8
20260904095219 65 135 2.0 2.0 0.00 0.00 0.00 98 982.9
20260904094719 65 0 0.0 0.0 0.00 0.00 0.00 98 983.0
20260904094219 65 0 0.0 0.0 0.00 0.00 0.00 98 983.0
20260904093719 65 0 0.0 0.0 0.00 0.00 0.00 98 983.1
20260904093219 65 0 0.0 0.0 0.00 0.00 0.00 98 983.1
20260904092718 65 0 0.0 0.0 0.00 0.00 0.00 98 983.1
20260904092218 65 0 0.0 0.0 0.00 0.00 0.00 98 983.0
20260904091718 65 0 0.0 0.0 0.00 0.00 0.00 98 982.9
20260904091218 65 40 1.0 2.0 0.00 0.00 0.00 98 982.9
20260904090156 65 59 1.0 2.0 0.00 0.00 0.00 98 983.0
20260904085135 65 0 0.0 0.0 0.00 0.00 0.00 98 982.9
20260904084634 65 0 0.0 0.0 0.00 0.00 0.00 98 982.9
20260904084134 65 24 1.0 2.0 0.00 0.00 0.00 97 982.9
20260904083634 65 0 0.0 0.0 0.00 0.00 0.00 97 982.7
20260904083134 65 0 0.0 0.0 0.00 0.00 0.00 97 982.6
20260904082634 65 0 0.0 0.0 0.00 0.00 0.00 97 982.6
20260904082132 65 0 0.0 0.0 0.00 0.00 0.00 97 982.6
20260904081632 65 0 0.0 0.0 0.00 0.00 0.00 97 982.7
20260904081132 66 0 0.0 0.0 0.00 0.00 0.00 97 982.7
20260904080632 66 0 0.0 0.0 0.00 0.00 0.00 97 982.8
20260904075610 66 25 1.0 1.0 0.00 0.00 0.00 97 982.9
20260904075110 66 345 1.0 3.0 0.00 0.00 0.00 97 982.9
20260904074610 66 12 1.0 2.0 0.00 0.00 0.00 97 983.0
20260904074110 66 58 2.0 3.0 0.00 0.00 0.00 97 983.0
20260904073609 66 236 1.0 3.0 0.00 0.00 0.00 97 983.0
20260904073109 66 45 3.0 3.0 0.00 0.00 0.00 97 983.2
20260904072609 66 351 2.0 4.0 0.00 0.00 0.00 97 983.3
20260904072109 66 359 1.0 3.0 0.00 0.00 0.00 96 983.3
20260904071608 66 357 2.0 3.0 0.00 0.00 0.00 96 983.3
20260904071108 66 346 1.0 2.0 0.00 0.00 0.00 96 983.4
20260904070608 66 352 3.0 5.0 0.00 0.00 0.00 96 983.5
20260904070108 66 0 0.0 0.0 0.00 0.00 0.00 96 983.5
20260904065046 67 0 0.0 0.0 0.00 0.00 0.00 96 983.4
20260904064546 67 332 3.0 5.0 0.00 0.00 0.00 96 983.4
20260904064046 67 343 2.0 5.0 0.00 0.00 0.00 96 983.3
20260904063025 67 340 1.0 3.0 0.00 0.00 0.00 96 983.2
20260904062524 67 4 1.0 2.0 0.00 0.00 0.00 97 983.2
20260904062024 67 332 1.0 2.0 0.00 0.00 0.00 97 983.3
20260904061523 67 13 2.0 3.0 0.00 0.00 0.00 97 983.4
20260904061023 67 0 0.0 0.0 0.00 0.00 0.00 97 983.3
20260904060523 67 0 0.0 0.0 0.00 0.00 0.00 97 983.3
20260904060023 67 336 2.0 2.0 0.00 0.00 0.00 97 983.3
20260904055522 67 354 1.0 3.0 0.00 0.00 0.00 97 983.3
20260904055022 67 343 0.0 1.0 0.00 0.00 0.00 97 983.5
20260904054522 67 324 2.0 5.0 0.00 0.00 0.00 97 983.6
20260904054022 67 314 3.0 5.0 0.00 0.00 0.00 97 983.5
20260904053522 67 326 2.0 3.0 0.00 0.00 0.00 97 983.4
20260904052500 67 358 4.0 6.0 0.00 0.00 0.00 97 983.5
20260904051959 68 342 3.0 6.0 0.00 0.00 0.00 97 983.5
20260904050938 68 343 2.0 4.0 0.00 0.00 0.00 97 983.4
20260904050438 68 353 1.0 3.0 0.00 0.00 0.00 97 983.4
20260904045937 68 322 1.0 3.0 0.00 0.00 0.00 97 983.4
20260904045437 68 318 2.0 3.0 0.00 0.00 0.00 97 983.4
20260904044937 68 323 1.0 2.0 0.00 0.00 0.00 97 983.3
20260904044437 68 324 1.0 2.0 0.00 0.00 0.00 97 983.3
20260904043936 68 330 1.0 2.0 0.00 0.00 0.00 97 983.3
20260904043436 68 0 0.0 0.0 0.00 0.00 0.00 97 983.3
20260904041853 68 0 0.0 0.0 0.00 0.00 0.00 97 983.2
20260904041353 68 335 2.0 3.0 0.00 0.00 0.00 97 983.1
20260904040852 68 320 2.0 4.0 0.00 0.00 0.00 97 983.0